Regional Weather Roundup
Issued by NWS

Home | Current Version | Previous Version | Text Only | Print | Product List | Glossary Off
Versions: 1 2 3 4 5 6 7 8 9 10 11 12 13 14 15 16 17 18 19 20 21 22 23 24 25 26 27 28 29 30 31 32 33 34 35 36 37 38 39 40 41 42 43 44 45 46 47 48 49

000
ASUS43 KDMX 022207
RWRIA

WEATHER ROUNDUP FOR IOWA
NATIONAL WEATHER SERVICE DES MOINES IA
500 PM CDT WED SEP 02 2015

NOTE: "FAIR" INDICATES FEW OR NO CLOUDS BELOW 12,000 FEET WITH NO
SIGNIFICANT WEATHER AND/OR OBSTRUCTIONS TO VISIBILITY.

* - THESE STATIONS ARE NOT NWS STATIONS...THUS NOT UNDER NWS
QUALITY CONTROL.  THEY ALSO DO NOT REPORT WEATHER SUCH
AS PRECIPITATION OR FOG.

IAZ001>003-012>014-020>022-031>034-043>046-022300-
   NORTHWEST IOWA

CITY           SKY/WX    TMP DP  RH WIND       PRES   REMARKS
CARROLL *      SUNNY     84  73  70 SW18      29.86S HX  91
CHEROKEE *     SUNNY     84  72  65 S14       29.84F HX  89
DENISON *      SUNNY     84  73  70 S8G15     29.84F HX  91
LE MARS *      SUNNY     86  73  66 S17       29.83S HX  93
ORANGE CITY *  SUNNY     84  72  65 S16       29.83F HX  89
SHELDON *      SUNNY     84  73  70 S12G17    29.83S HX  91
SIOUX CITY     SUNNY     87  68  52 S14       29.82F HX  90
SPENCER        SUNNY     85  71  63 S12       29.85F HX  90
STORM LAKE *   SUNNY     82  73  74 SW14      29.87S HX  88
$$

IAZ055>058-069>071-079>083-090>094-022300-
   SOUTHWEST IOWA

CITY           SKY/WX    TMP DP  RH WIND       PRES   REMARKS
ATLANTIC *     SUNNY     84  72  65 S15       29.87S HX  89
AUDUBON *      SUNNY     84  72  65 S15G24    29.88F HX  89
CLARINDA *     SUNNY     86  72  62 S13       29.90F HX  92
COUNCIL BLFS * SUNNY     88  72  58 S13G20    29.86S HX  94
CRESTON *      MOSUNNY   82  70  65 S20       29.91F HX  86
LAMONI         MOSUNNY   84  70  62 SW14      29.91F HX  88
RED OAK *      SUNNY     86  72  62 S16       29.87F HX  92
SHENANDOAH *   SUNNY     90  70  51 S16G22    29.87F HX  95
$$

IAZ047>049-059>061-072>074-084-022300-
   CENTRAL IOWA

CITY           SKY/WX    TMP DP  RH WIND       PRES   REMARKS
AMES           SUNNY     86  70  58 S14       29.87F HX  90
ANKENY *       SUNNY     88  70  55 SW15G22   29.88S HX  92
CHARITON *     SUNNY     84  70  61 S8G16     29.92S HX  88
DES MOINES     MOSUNNY   88  66  48 S12G22    29.88F HX  90
GRINNELL*      SUNNY     86  66  51 S10       29.92F HX  88
KNOXVILLE *    SUNNY     86  68  54 S9        29.90F HX  89
MARSHALLTOWN   SUNNY     85  70  60 S12       29.89F HX  89
PELLA *        SUNNY     90  72  55 S8        29.92F HX  96
PERRY *          N/A     88  70  55 SW13      29.87F HX  92
$$

IAZ004>006-015-016-023>025-035-036-022300-
   NORTH CENTRAL IOWA

CITY           SKY/WX    TMP DP  RH WIND       PRES   REMARKS
ALGONA *       SUNNY     84  72  65 S9        29.86F HX  89
CLARION *      SUNNY     84  72  65 SW10G16   29.87F HX  89
ESTHERVILLE    SUNNY     83  72  69 S13       29.85F HX  88
FORT DODGE *   SUNNY     86  70  58 SW13      29.87F HX  90
MASON CITY     SUNNY     85  71  63 SW15      29.89S HX  90
FOREST CITY *  SUNNY     84  68  58 S10       29.87F HX  87
IOWA FALLS *     N/A     88  70  55 S12       29.90S HX  92
$$

IAZ007>011-017>019-026>030-037>042-050>054-066-022300-
   NORTHEAST IOWA

CITY           SKY/WX    TMP DP  RH WIND       PRES   REMARKS
CEDAR RAPIDS   SUNNY     82  72  71 S13       29.93F HX  87
CHARLES CITY * CLOUDY    84  73  70 S6G16     29.90S HX  91
CLINTON *      PTSUNNY   82  72  69 S12       29.97F HX  87
DECORAH *      PTSUNNY   81  72  74 VRB6G13   29.91F HX  84
DUBUQUE        CLOUDY    81  70  69 S9        29.96S HX  84
MONTICELLO *   MOSUNNY   82  70  65 S13       29.94S HX  86
OELWEIN *      MOSUNNY   82  73  74 S8G16     29.92F HX  88
WATERLOO       MOSUNNY   85  69  58 SW13      29.89S HX  89
$$

IAZ064-065-067-068-078-022300-
   EAST CENTRAL IOWA

CITY           SKY/WX    TMP DP  RH WIND       PRES   REMARKS
DAVENPORT      PTSUNNY   84  70  62 S13       29.95F HX  88
IOWA CITY      MOSUNNY   85  69  58 S13       29.94F HX  89
MT. PLEASANT * CLOUDY    86  66  51 S5        29.95F HX  88
MUSCATINE *    PTSUNNY   88  70  55 S9        29.94F HX  92
QUAD CITIES    CLOUDY    86  70  58 S8        29.94F HX  90
$$

IAZ062-063-075>077-085>089-095>099-022300-
   SOUTHEAST IOWA

CITY           SKY/WX    TMP DP  RH WIND       PRES   REMARKS
BURLINGTON     MOSUNNY   88  69  53 S15       29.95F HX  92
FAIRFIELD *    PTSUNNY   84  68  58 S7        29.95F HX  87
FORT MADISON * SUNNY     88  70  55 S8        29.96F HX  92
KEOKUK *       SUNNY     90  68  48 S12       29.95S HX  93
OSKALOOSA *      N/A     88  66  48 S8        29.93F HX  90
CENTERVILLE *  SUNNY     82  72  69 S8        29.96S HX  87
OTTUMWA        SUNNY     85  71  63 S12       29.92F HX  90
WASHINGTON *     N/A    N/A N/A N/A MISG        N/A
$$

ABBREVIATIONS USED IN REMARKS
   TC - TEMPERATURES IN CELSIUS
  WCI - WIND CHILL INDEX
   HX - HEAT INDEX
  VSB - VISIBILITY
$$




USA.gov is the U.S. government's official web portal to all federal, state and local government web resources and services.